GFSNIL_con_3kmhel_105.txt.gz
Helicity
58 61 65 99 88 156 185 293 377 292 331 348 335 342 294 383 319 262 240 144 106 109
56 61 82 107 148 185 247 338 323 360 297 337 225 275 301 324 194 181 281 280 134 111
71 59 72 110 157 196 283 392 450 510 397 289 440 444 365 307 231 169 152 230 147 93
98 78 86 89 107 138 207 214 330 409 498 301 307 238 316 224 172 91 89 7 -23 63
115 97 82 87 102 132 181 151 266 364 459 208 260 196 203 151 119 94 62 15 39 68
129 121 95 92 103 121 123 131 132 117 122 125 172 193 180 166 145 113 53 -37 22 30
138 136 107 96 120 118 114 135 142 82 44 61 105 165 156 140 134 96 63 76 84 111
76 94 120 133 131 132 132 126 116 103 84 75 61 81 96 101 106 98 127 134 109 95
95 98 87 93 119 135 137 134 129 117 107 94 89 100 84 98 110 148 172 200 215 216
148 133 132 123 104 96 113 129 137 130 126 121 125 109 101 133 219 260 290 332 353 358
221 176 157 166 151 128 117 133 163 180 189 210 200 170 212 338 394 415 402 415 442 480
195 217 152 157 179 203 241 252 280 273 279 292 278 251 339 462 461 504 535 526 557 618
165 202 203 180 271 329 344 367 379 410 389 362 391 402 456 479 625 711 742 751 684 725
221 215 323 417 351 379 418 457 450 475 491 496 471 475 484 567 718 818 929 972 946 864

GFSNIL_con_3kmhel_111.txt.gz
Helicity
63 53 37 69 109 165 202 292 238 162 152 107 151 189 212 251 304 259 290 275 221 212
60 45 46 79 89 141 196 254 232 233 172 166 192 180 132 184 254 254 258 207 239 202
66 34 43 54 69 128 157 271 138 85 142 195 166 148 180 183 185 170 193 265 244 224
68 34 36 55 66 68 138 168 99 80 126 144 149 197 270 333 283 307 318 286 224 254
61 43 33 42 32 44 73 135 161 232 180 205 304 116 176 291 242 223 250 293 302 270
47 33 30 29 38 24 28 62 110 97 220 238 273 222 178 207 289 182 102 140 146 127
40 20 35 45 44 35 24 24 34 39 135 203 160 271 196 188 230 291 93 73 133 101
55 31 37 53 55 58 43 22 21 46 69 84 142 183 272 180 188 251 236 265 294 297
52 47 40 46 55 67 64 69 59 39 50 76 137 190 283 211 220 256 337 353 304 317
52 43 48 51 58 60 65 78 88 79 72 65 62 92 80 105 165 156 226 286 331 301
88 104 56 39 58 62 65 101 117 109 106 97 87 86 71 83 153 202 211 265 299 328
114 67 99 83 65 74 111 114 105 130 144 142 136 142 197 270 284 317 333 346 368 406
119 117 47 62 109 153 173 167 192 199 197 242 258 204 279 367 399 419 423 422 435 446
95 95 168 95 111 206 314 358 335 296 235 221 240 325 351 402 454 524 556 568 584 563

GFSNIL_con_3kmhel_114.txt.gz
Helicity
94 88 66 58 83 86 111 122 162 257 306 269 277 339 327 298 306 170 204 173 182 117
91 59 53 58 77 92 94 153 237 304 258 270 295 305 291 384 385 236 204 164 192 159
86 52 59 59 77 91 112 147 208 173 137 180 198 238 262 252 223 160 206 227 237 211
61 51 65 55 70 70 117 164 186 159 147 144 107 99 123 142 145 162 137 191 163 161
56 50 70 65 61 75 114 156 196 156 88 25 71 44 -44 104 95 120 174 186 169 173
50 45 54 51 50 55 75 116 128 132 92 60 172 188 193 112 76 108 226 269 258 191
36 34 53 48 46 42 48 80 110 125 92 90 107 125 130 82 85 134 206 203 187 173
43 31 42 35 40 33 37 50 69 96 98 110 115 138 120 169 183 127 163 182 220 201
65 40 41 25 29 26 20 30 55 72 107 142 155 138 119 176 168 174 163 316 311 319
71 57 47 39 34 20 18 19 20 37 60 62 79 100 121 122 156 180 232 323 352 358
167 71 55 48 42 28 21 27 30 34 38 45 51 101 130 204 287 314 263 310 366 408
138 155 157 71 58 41 34 52 54 62 68 60 45 86 117 218 255 269 279 255 258 297
85 90 62 91 30 52 38 38 106 137 148 127 112 110 180 242 290 330 358 365 367 354
120 83 87 73 51 110 203 245 306 338 286 256 200 193 229 291 283 387 448 467 481 492

GFSNIL_con_3kmhel_117.txt.gz
Helicity
150 141 120 112 126 129 128 122 126 172 187 147 200 293 354 408 300 327 299 174 153 187
133 104 83 89 106 114 146 124 122 140 148 130 206 292 332 414 290 362 334 334 215 59
89 82 89 102 136 121 129 126 136 158 150 227 245 362 327 323 297 330 359 232 175 33
90 75 89 104 105 95 119 116 139 128 130 189 275 262 315 316 310 459 342 181 113 117
108 95 92 101 92 106 113 133 157 114 116 162 150 185 246 238 294 288 262 253 242 154
111 95 83 88 101 96 112 139 135 136 116 148 144 105 136 200 195 201 270 346 177 85
106 91 78 87 73 82 90 117 128 155 121 78 102 111 32 -23 92 47 89 89 105 161
89 73 75 108 63 65 69 81 95 123 136 132 92 99 153 75 97 121 115 156 177 187
82 71 102 99 69 67 53 59 91 94 96 118 109 91 144 145 140 122 100 142 246 297
120 82 134 101 57 55 48 39 50 76 95 87 81 105 88 75 149 163 172 238 234 301
268 245 182 95 71 47 51 52 46 57 54 70 62 90 106 121 102 108 166 224 257 262
291 271 255 194 78 66 45 48 57 60 58 56 64 66 84 99 207 270 297 327 321 307
198 213 201 185 180 131 52 60 74 124 183 173 143 114 134 211 250 284 306 317 329 293
83 136 145 138 133 148 124 206 277 255 231 238 208 217 242 241 271 290 329 343 383 399